Regional Weather Roundup
Issued by NWS Portland, ME

Home | Current Version | Previous Version | Text Only | Print | Product List | Glossary On
Versions: 1 2 3 4 5 6 7 8 9 10 11 12 13 14 15 16 17 18 19 20 21 22 23 24 25 26 27 28 29 30 31 32 33 34 35 36 37 38 39 40 41 42 43 44 45 46 47 48 49 50
000
ASUS41 KGYX 260910
RWRGYX
WEATHER ROUNDUP FOR MAINE AND NEW HAMPSHIRE
NATIONAL WEATHER SERVICE GRAY ME
500 AM EDT SAT JUL 26 2014

MEZ002-005-006-010-012-015-018-020-021-024-026-027-029-261000-
MAINE

CITY           SKY/WX    TMP DP  RH WIND       PRES   REMARKS
PORTLAND       PTCLDY    60  55  83 CALM      29.93F
SANFORD        CLEAR     61  54  77 SW7       29.94S
BAR HARBOR     CLEAR     57  57 100 CALM      29.91S
WISCASSET      CLEAR     57  54  89 CALM      29.93S FOG
ROCKLAND       CLEAR     57  55  94 W3        29.91R
FRYEBURG       CLEAR     53  52  96 CALM      29.94S FOG
LEWISTONAUBURN CLEAR     57  54  88 CALM      29.93S
AUGUSTA        CLEAR     62  57  83 S5        29.92S
WATERVILLE     CLEAR     57  55  94 CALM      29.88S
BANGOR         CLEAR     57  56  96 CALM      29.91R
GREENVILLE       N/A     60  52  74 CALM      29.90S
MILLINOCKET    CLEAR     56  52  86 CALM      29.89S
HOULTON        CLEAR     60  54  80 S6        29.85R
PRESQUE ISLE   CLEAR     59  52  77 S6        29.84S
FRENCHVILLE    PTCLDY    58  54  86 CALM      29.80S
CARIBOU        CLEAR     57  54  89 SW5       29.82R
$$

NHZ002-005-008-009-011-012-014-261000-
NEW HAMPSHIRE

CITY           SKY/WX    TMP DP  RH WIND       PRES   REMARKS
PORTSMOUTH     PTCLDY    61  57  88 SW2       29.94S
ROCHESTER      CLEAR     59  56  89 CALM      29.94F
NASHUA         PTCLDY    59  58  96 CALM      29.97S
MANCHESTER     PTCLDY    61  58  90 S3        29.94S
CONCORD        CLEAR     55  54  96 CALM      29.95F FOG
LACONIA          N/A     63  54  72 W6        29.94S
PLYMOUTH       FOG       55  55  97 CALM      29.96S VSB 1/4
BERLIN         PTCLDY    50  48  93 CALM      29.95S FOG
WHITEFIELD     CLEAR     50  46  86 CALM      29.96S
JAFFREY        PTCLDY    59  57  93 CALM      29.99S
LEBANON        CLEAR     53  50  89 CALM      29.95F FOG
MT WASHINGTON  FOG       43  43 100 W38         N/A  VSB 0
$$

VTZ005-007-008-261000-
VERMONT

CITY           SKY/WX    TMP DP  RH WIND       PRES   REMARKS
ST JOHNSBURY     N/A     54  54 100 MISG      29.94S
MONTPELIER     FOG       52  52 100 NE3       29.98F VSB 1/2
BURLINGTON     CLEAR     63  54  72 S5        29.92S
$$

MAZ007-012-024-CTZ003-RIZ002-NYZ038-NYZ072-261000-
SOUTHERN NEW ENGLAND AND NY

CITY           SKY/WX    TMP DP  RH WIND       PRES   REMARKS
BOSTON         CLEAR     65  58  78 S6        29.96F
WORCESTER      MOCLDY    60  56  86 W7        29.99S
NANTUCKET      CLEAR     63  61  93 SW6       30.00S
PROVIDENCE     PTCLDY    64  60  87 W6        29.99S
HARTFORD       MOCLDY    63  59  87 S5        29.97S
ALBANY         MOCLDY    62  59  90 CALM      29.95F
NEW YORK CITY  CLOUDY    71  60  68 SW7       29.99R
$$

ANZ081-ANZ082-ANZ150-NHZ014-MEZ023>029-261000-
COASTAL MARINE OBSERVATIONS

STATION/POSITION TIME  TEMP    WIND        PRES    WAVE
                       AIR SEA DIR/SP/G            HT/PER
                 (UTC) (F)     (DEG/KT/KT) (MB)    (FT/S)
MOUNT DESERT ROC 0900   61                 1012.8R
MATINICUS ROCK   0900          240/ 15/ 16 1012.7S
PORTLAND WX BUOY 0900   64 62  220/  4/  4 1013.7R   2/ 9
WELLS            0900   63 61  260/  4/  6 1013.0R
ISLE OF SHOALS   0900   65     230/  8/  9 1013.5F
JEFFREYS LEDGE   0900      65                N/A     2/ 9
CASHES LEDGE BUO 0900   67 66  VRB 10/ 12  1013.4R   3/ 8
$$

.............KEY..............
   WCI - WIND CHILL
   TC  - TEMPERATURE IN CELSIUS
   VSB - VISIBILITY IN MILES
   HX  - HEAT INDEX
   FAIR- INDICATES FEW OR NO CLOUDS BELOW 12,000 FT, WITH NO
         SIGNIFICANT WEATHER AND/OR OBSTRUCTIONS TO VISIBILITY.




USA.gov is the U.S. government's official web portal to all federal, state and local government web resources and services.